Location: Azul
(36.7830°S, 59.8500°W)
Time: 18:39:38
(UTC-03:00)

BUGSAT 1 - Pass Details

Date: 23 October 2021
Orbit: 558 x 600 km, 98.1° (Epoch: 06 December)

Event Time Altitude Azimuth Distance (km) Brightness Sun altitude
Rises 04:04:20 0° 51° (NE) 2,803 ? -22.5°
Reaches altitude 10° 04:06:59 10° 69° (ENE) 1,921 ? -22.1°
Maximum altitude 04:09:52 18° 113° (ESE) 1,467 ? -21.6°
Drops below altitude 10° 04:12:48 10° 157° (SSE) 1,956 ? -21.2°
Sets 04:15:31 0° 174° (S) 2,875 ? -20.7°
